Location: ???? ???? ?????
(31.2680°N, 31.7283°E)
Time: 04:31:52
(UTC+00:00)

USA 215 - Pass Details

Date: 13 July 2020
Orbit: 1102 x 1106 km, 123.0° (Epoch: 08 August)

Event Time Altitude Azimuth Distance (km) Brightness Sun altitude
Rises 20:24:41 0° 36° (NE) 3,920 6.5 -32.4°
Reaches altitude 10° 20:27:13 10° 31° (NNE) 2,960 5.8 -32.7°
Maximum altitude 20:33:31 53° 318° (NW) 1,332 3.9 -33.2°
Enters shadow 20:37:42 22° 250° (WSW) 2,206 4.8 -33.6°
